Voltar ao catálogo

ORBCOMM FM 16

AtivoComunicaçõesLEO
NORAD 25417·PAYLOAD·🇺🇸 United States

Lançado Aug 2, 1998 de Cape Canaveral Space Force Station

Loading…

Próximas Passagens (próximas 24 horas)

TLE

AtualizadoSource: Space-Track

Época: Sep 14, 2026, 13:55 UTC

1 25417U 98046E   26257.58049135  .00000739  00000-0  27631-3 0  9994
2 25417  44.9926 172.4558 0004974  43.8175 316.3068 14.40208729469732

Acompanhe ORBCOMM FM 16 em tempo real com AllMySat

Download on the App Store